| time (UTC) | temp F | wind direction | speed knots | gust knots | rain 1hr in | rain 24hr in | rain mn in | humidity % | barometer mb |
| 20260508012609 | 55 | 202 | 0.0 | 0.0 | 0.00 | 0.00 | 0.00 | 94 | 1016.5 |
| 20260508011529 | 56 | 202 | 1.7 | 3.5 | 0.00 | 0.00 | 0.00 | 94 | 1016.6 |
| 20260508010528 | 56 | 202 | 1.7 | 3.5 | 0.00 | 0.00 | 0.00 | 94 | 1016.6 |
| 20260508005528 | 56 | 202 | 3.5 | 3.5 | 0.00 | 0.00 | 0.00 | 94 | 1016.7 |
| 20260508004528 | 56 | 202 | 3.5 | 3.5 | 0.00 | 0.00 | 0.00 | 94 | 1016.7 |
| 20260508003528 | 56 | 202 | 3.5 | 3.5 | 0.00 | 0.00 | 0.00 | 94 | 1016.7 |
| 20260508002528 | 56 | 202 | 3.5 | 4.3 | 0.00 | 0.00 | 0.00 | 94 | 1016.7 |
| 20260508001528 | 56 | 202 | 3.5 | 3.5 | 0.00 | 0.00 | 0.00 | 94 | 1016.7 |
| 20260508000608 | 56 | 202 | 3.5 | 3.5 | 0.00 | 0.00 | 0.00 | 94 | 1016.9 |
| 20260507235528 | 56 | 202 | 2.6 | 3.5 | 0.00 | 0.00 | 0.00 | 95 | 1017.0 |
| 20260507234528 | 55 | 202 | 3.5 | 4.3 | 0.00 | 0.00 | 0.00 | 95 | 1017.0 |
| 20260507233528 | 55 | 202 | 2.6 | 3.5 | 0.00 | 0.00 | 0.00 | 95 | 1017.2 |
| 20260507232527 | 56 | 202 | 1.7 | 3.5 | 0.00 | 0.00 | 0.00 | 94 | 1017.3 |
| 20260507231527 | 56 | 202 | 0.0 | 0.9 | 0.00 | 0.00 | 0.00 | 93 | 1017.3 |
| 20260507230527 | 57 | 202 | 3.5 | 4.3 | 0.00 | 0.00 | 0.00 | 93 | 1017.4 |
| 20260507225528 | 57 | 202 | 2.6 | 3.5 | 0.00 | 0.00 | 0.00 | 93 | 1017.5 |
| 20260507224607 | 57 | 202 | 2.6 | 3.5 | 0.00 | 0.00 | 0.00 | 93 | 1017.6 |
| 20260507223527 | 57 | 202 | 3.5 | 3.5 | 0.00 | 0.00 | 0.00 | 94 | 1017.8 |
| 20260507222527 | 57 | 202 | 1.7 | 3.5 | 0.00 | 0.00 | 0.00 | 93 | 1017.8 |
| 20260507221527 | 57 | 202 | 1.7 | 3.5 | 0.00 | 0.00 | 0.00 | 93 | 1017.7 |
| 20260507220527 | 57 | 202 | 0.9 | 2.6 | 0.00 | 0.00 | 0.00 | 93 | 1017.7 |
| 20260507215547 | 57 | 202 | 0.9 | 3.5 | 0.00 | 0.00 | 0.00 | 92 | 1017.8 |
| 20260507214527 | 58 | 202 | 0.9 | 1.7 | 0.00 | 0.00 | 0.00 | 92 | 1017.8 |
| 20260507213527 | 57 | 202 | 1.7 | 3.5 | 0.00 | 0.00 | 0.00 | 92 | 1017.7 |
| 20260507212527 | 57 | 202 | 2.6 | 3.5 | 0.00 | 0.00 | 0.00 | 92 | 1017.8 |
| 20260507211527 | 57 | 202 | 3.5 | 5.2 | 0.00 | 0.00 | 0.00 | 92 | 1017.8 |
| 20260507210526 | 57 | 202 | 2.6 | 3.5 | 0.00 | 0.00 | 0.00 | 92 | 1017.7 |
| 20260507205527 | 57 | 202 | 2.6 | 3.5 | 0.00 | 0.00 | 0.00 | 91 | 1017.6 |
| 20260507204527 | 57 | 202 | 4.3 | 5.2 | 0.00 | 0.00 | 0.00 | 91 | 1017.6 |
| 20260507203527 | 57 | 202 | 2.6 | 3.5 | 0.00 | 0.00 | 0.00 | 90 | 1017.5 |
| 20260507202526 | 57 | 202 | 4.3 | 5.2 | 0.00 | 0.00 | 0.00 | 90 | 1017.5 |
| 20260507201526 | 57 | 190 | 3.5 | 5.2 | 0.00 | 0.00 | 0.00 | 89 | 1017.7 |
| 20260507200526 | 57 | 199 | 4.3 | 6.1 | 0.00 | 0.00 | 0.00 | 89 | 1017.6 |
| 20260507195546 | 57 | 180 | 3.5 | 3.5 | 0.00 | 0.00 | 0.00 | 89 | 1017.7 |
| 20260507194526 | 58 | 202 | 4.3 | 6.1 | 0.00 | 0.00 | 0.00 | 89 | 1017.7 |
| 20260507193526 | 58 | 198 | 4.3 | 6.1 | 0.00 | 0.00 | 0.00 | 89 | 1017.7 |
| 20260507192526 | 58 | 202 | 4.3 | 6.1 | 0.00 | 0.00 | 0.00 | 89 | 1017.7 |
| 20260507191526 | 58 | 202 | 2.6 | 5.2 | 0.00 | 0.00 | 0.00 | 88 | 1017.7 |
| 20260507190526 | 59 | 202 | 3.5 | 5.2 | 0.00 | 0.00 | 0.00 | 88 | 1017.8 |
| 20260507185526 | 59 | 202 | 1.7 | 3.5 | 0.00 | 0.00 | 0.00 | 87 | 1017.7 |
| 20260507184526 | 60 | 202 | 0.0 | 0.0 | 0.00 | 0.00 | 0.00 | 86 | 1017.5 |
| 20260507183526 | 60 | 202 | 0.0 | 2.6 | 0.00 | 0.00 | 0.00 | 85 | 1017.5 |
| 20260507182525 | 61 | 202 | 3.5 | 4.3 | 0.00 | 0.00 | 0.00 | 84 | 1017.6 |
| 20260507181525 | 62 | 202 | 1.7 | 3.5 | 0.00 | 0.00 | 0.00 | 84 | 1017.4 |
| 20260507180525 | 63 | 202 | 0.9 | 1.7 | 0.00 | 0.00 | 0.00 | 81 | 1017.2 |
| 20260507175525 | 63 | 202 | 1.7 | 3.5 | 0.00 | 0.00 | 0.00 | 81 | 1017.1 |
| 20260507174606 | 64 | 202 | 1.7 | 3.5 | 0.00 | 0.00 | 0.00 | 80 | 1017.0 |
| 20260507173527 | 64 | 202 | 0.9 | 1.7 | 0.00 | 0.00 | 0.00 | 79 | 1017.0 |
| 20260507172525 | 64 | 143 | 2.6 | 3.5 | 0.00 | 0.00 | 0.00 | 77 | 1016.9 |
| 20260507171525 | 65 | 90 | 2.6 | 3.5 | 0.00 | 0.00 | 0.00 | 79 | 1016.8 |
| 20260507170525 | 65 | 270 | 0.0 | 0.9 | 0.00 | 0.00 | 0.00 | 79 | 1017.2 |
| 20260507165525 | 66 | 270 | 0.0 | 0.9 | 0.00 | 0.00 | 0.00 | 79 | 1017.4 |
| 20260507164546 | 67 | 270 | 0.0 | 0.9 | 0.00 | 0.00 | 0.00 | 77 | 1017.5 |
| 20260507163525 | 67 | 270 | 0.0 | 0.9 | 0.00 | 0.00 | 0.00 | 74 | 1017.3 |
| 20260507162524 | 67 | 270 | 0.0 | 0.9 | 0.00 | 0.00 | 0.00 | 72 | 1017.2 |
| 20260507161525 | 68 | 270 | 0.9 | 1.7 | 0.00 | 0.00 | 0.00 | 71 | 1017.4 |
| 20260507160525 | 67 | 270 | 0.9 | 1.7 | 0.00 | 0.00 | 0.00 | 71 | 1017.4 |
| 20260507155525 | 67 | 270 | 0.9 | 2.6 | 0.00 | 0.00 | 0.00 | 71 | 1017.5 |
| 20260507154525 | 67 | 270 | 0.9 | 2.6 | 0.00 | 0.00 | 0.00 | 72 | 1017.3 |
| 20260507153545 | 67 | 270 | 0.9 | 2.6 | 0.00 | 0.00 | 0.00 | 69 | 1017.7 |
| 20260507152524 | 67 | 270 | 0.0 | 3.5 | 0.00 | 0.00 | 0.00 | 67 | 1017.7 |
| 20260507151524 | 67 | 270 | 0.9 | 3.5 | 0.00 | 0.00 | 0.00 | 68 | 1017.7 |
| 20260507150544 | 68 | 280 | 1.7 | 4.3 | 0.00 | 0.00 | 0.00 | 68 | 1017.7 |
| 20260507145524 | 68 | 283 | 2.6 | 6.1 | 0.00 | 0.00 | 0.00 | 69 | 1017.7 |
| 20260507144545 | 69 | 268 | 1.7 | 3.5 | 0.00 | 0.00 | 0.00 | 70 | 1017.6 |
| 20260507143524 | 70 | 292 | 2.6 | 6.1 | 0.00 | 0.00 | 0.00 | 69 | 1017.6 |
| 20260507142544 | 71 | 294 | 3.5 | 6.1 | 0.00 | 0.00 | 0.00 | 67 | 1017.7 |
| 20260507141524 | 72 | 288 | 3.5 | 5.2 | 0.00 | 0.00 | 0.00 | 68 | 1017.5 |
| 20260507140524 | 74 | 265 | 2.6 | 6.1 | 0.00 | 0.00 | 0.00 | 65 | 1017.4 |
| 20260507135524 | 74 | 299 | 2.6 | 5.2 | 0.00 | 0.00 | 0.00 | 61 | 1017.3 |
| 20260507134524 | 73 | 288 | 1.7 | 3.5 | 0.00 | 0.00 | 0.00 | 61 | 1017.3 |
| 20260507133524 | 71 | 259 | 0.9 | 3.5 | 0.00 | 0.00 | 0.00 | 64 | 1017.2 |
| 20260507132524 | 70 | 68 | 0.9 | 1.7 | 0.00 | 0.00 | 0.00 | 67 | 1017.3 |
| 20260507131524 | 69 | 45 | 0.9 | 1.7 | 0.00 | 0.00 | 0.00 | 67 | 1017.5 |
| 20260507130524 | 69 | 45 | 0.9 | 2.6 | 0.00 | 0.00 | 0.00 | 68 | 1017.7 |
| 20260507125524 | 69 | 45 | 0.9 | 3.5 | 0.00 | 0.00 | 0.00 | 70 | 1017.3 |
| 20260507124525 | 70 | 45 | 1.7 | 3.5 | 0.00 | 0.00 | 0.00 | 70 | 1017.6 |
| 20260507123524 | 70 | 45 | 1.7 | 3.5 | 0.00 | 0.00 | 0.00 | 68 | 1018.1 |
| 20260507122523 | 69 | 6 | 2.6 | 3.5 | 0.00 | 0.00 | 0.00 | 70 | 1018.3 |
| 20260507121523 | 67 | 316 | 0.9 | 2.6 | 0.00 | 0.00 | 0.00 | 72 | 1018.6 |
| 20260507120524 | 66 | 338 | 0.9 | 1.7 | 0.00 | 0.00 | 0.00 | 75 | 1018.8 |
| 20260507115523 | 65 | 30 | 0.9 | 1.7 | 0.00 | 0.00 | 0.00 | 80 | 1018.8 |
| 20260507114523 | 65 | 45 | 0.9 | 1.7 | 0.00 | 0.00 | 0.00 | 82 | 1018.8 |
| 20260507113524 | 66 | 338 | 0.9 | 3.5 | 0.00 | 0.00 | 0.00 | 81 | 1019.1 |
| 20260507112523 | 66 | 337 | 1.7 | 3.5 | 0.00 | 0.00 | 0.00 | 78 | 1019.2 |
| 20260507111523 | 67 | 292 | 0.9 | 3.5 | 0.00 | 0.00 | 0.00 | 76 | 1019.2 |
| 20260507110523 | 67 | 315 | 0.9 | 3.5 | 0.00 | 0.00 | 0.00 | 73 | 1019.2 |
| 20260507105523 | 67 | 338 | 1.7 | 3.5 | 0.00 | 0.00 | 0.00 | 72 | 1019.2 |
| 20260507104543 | 68 | 338 | 1.7 | 3.5 | 0.00 | 0.00 | 0.00 | 69 | 1019.1 |
| 20260507103543 | 68 | 310 | 0.9 | 2.6 | 0.00 | 0.00 | 0.00 | 64 | 1019.1 |
| 20260507102523 | 69 | 276 | 2.6 | 5.2 | 0.00 | 0.00 | 0.00 | 63 | 1019.2 |
| 20260507101603 | 69 | 292 | 1.7 | 3.5 | 0.00 | 0.00 | 0.00 | 64 | 1019.1 |
| 20260507100522 | 69 | 284 | 3.5 | 5.2 | 0.00 | 0.00 | 0.00 | 66 | 1019.2 |
| 20260507095522 | 69 | 280 | 3.5 | 5.2 | 0.00 | 0.00 | 0.00 | 62 | 1019.0 |
| 20260507094522 | 69 | 270 | 4.3 | 6.1 | 0.00 | 0.00 | 0.00 | 61 | 1018.7 |
| 20260507093543 | 70 | 286 | 4.3 | 6.1 | 0.00 | 0.00 | 0.00 | 62 | 1018.6 |
| 20260507092522 | 70 | 302 | 2.6 | 5.2 | 0.00 | 0.00 | 0.00 | 62 | 1018.3 |
| 20260507091522 | 70 | 273 | 2.6 | 5.2 | 0.00 | 0.00 | 0.00 | 63 | 1018.2 |
| 20260507090522 | 70 | 296 | 3.5 | 6.1 | 0.00 | 0.00 | 0.00 | 60 | 1018.1 |
| 20260507085522 | 70 | 310 | 3.5 | 4.3 | 0.00 | 0.00 | 0.00 | 59 | 1018.0 |
| 20260507084522 | 71 | 301 | 2.6 | 5.2 | 0.00 | 0.00 | 0.00 | 59 | 1017.9 |
| 20260507083523 | 71 | 316 | 2.6 | 4.3 | 0.00 | 0.00 | 0.00 | 59 | 1017.8 |
| 20260507082522 | 71 | 331 | 1.7 | 3.5 | 0.00 | 0.00 | 0.00 | 59 | 1017.7 |
| 20260507081522 | 71 | 279 | 2.6 | 5.2 | 0.00 | 0.00 | 0.00 | 58 | 1017.6 |
| 20260507080522 | 70 | 263 | 2.6 | 3.5 | 0.00 | 0.00 | 0.00 | 59 | 1017.6 |
| 20260507075522 | 69 | 273 | 1.7 | 3.5 | 0.00 | 0.00 | 0.00 | 60 | 1017.4 |
| 20260507074522 | 70 | 272 | 2.6 | 3.5 | 0.00 | 0.00 | 0.00 | 62 | 1017.4 |
| 20260507073522 | 70 | 309 | 1.7 | 3.5 | 0.00 | 0.00 | 0.00 | 61 | 1017.3 |
| 20260507072522 | 69 | 304 | 2.6 | 3.5 | 0.00 | 0.00 | 0.00 | 61 | 1017.2 |
| 20260507071522 | 69 | 345 | 1.7 | 3.5 | 0.00 | 0.00 | 0.00 | 63 | 1017.2 |
| 20260507070522 | 68 | 324 | 2.6 | 5.2 | 0.00 | 0.00 | 0.00 | 68 | 1017.2 |
| 20260507065522 | 68 | 297 | 2.6 | 3.5 | 0.00 | 0.00 | 0.00 | 68 | 1017.3 |
| 20260507064542 | 69 | 333 | 3.5 | 5.2 | 0.00 | 0.00 | 0.00 | 66 | 1017.4 |
| 20260507063522 | 70 | 295 | 2.6 | 4.3 | 0.00 | 0.00 | 0.00 | 65 | 1017.4 |
| 20260507062522 | 70 | 334 | 1.7 | 3.5 | 0.00 | 0.00 | 0.00 | 62 | 1017.3 |
| 20260507061602 | 70 | 311 | 0.9 | 3.5 | 0.00 | 0.00 | 0.00 | 65 | 1017.1 |
| 20260507060533 | 70 | 45 | 0.9 | 1.7 | 0.00 | 0.00 | 0.00 | 63 | 1017.1 |
| 20260507055521 | 69 | 45 | 0.0 | 1.7 | 0.00 | 0.00 | 0.00 | 68 | 1016.9 |
| 20260507054602 | 68 | 45 | 0.9 | 1.7 | 0.00 | 0.00 | 0.00 | 73 | 1017.1 |
| 20260507053622 | 66 | 45 | 0.0 | 1.7 | 0.00 | 0.00 | 0.00 | 77 | 1017.0 |
| 20260507052521 | 65 | 45 | 0.9 | 1.7 | 0.00 | 0.00 | 0.00 | 83 | 1016.8 |
| 20260507051521 | 63 | 56 | 0.9 | 2.6 | 0.00 | 0.00 | 0.00 | 83 | 1016.8 |
| 20260507050521 | 61 | 180 | 0.9 | 0.9 | 0.00 | 0.00 | 0.00 | 88 | 1016.8 |
| 20260507045521 | 58 | 180 | 1.7 | 3.5 | 0.00 | 0.00 | 0.00 | 91 | 1016.8 |
| 20260507044522 | 56 | 180 | 1.7 | 3.5 | 0.00 | 0.00 | 0.00 | 94 | 1016.8 |
| 20260507043522 | 55 | 184 | 2.6 | 3.5 | 0.00 | 0.00 | 0.00 | 95 | 1016.7 |
| 20260507042521 | 53 | 202 | 2.6 | 3.5 | 0.00 | 0.00 | 0.00 | 96 | 1016.7 |
| 20260507041521 | 53 | 202 | 1.7 | 4.3 | 0.00 | 0.00 | 0.00 | 96 | 1016.6 |
| 20260507040521 | 52 | 202 | 1.7 | 3.5 | 0.00 | 0.00 | 0.00 | 96 | 1016.6 |
| 20260507035521 | 52 | 202 | 0.9 | 1.7 | 0.00 | 0.00 | 0.00 | 96 | 1016.4 |
| 20260507034521 | 53 | 202 | 1.7 | 3.5 | 0.00 | 0.00 | 0.00 | 96 | 1016.4 |
| 20260507033521 | 53 | 202 | 2.6 | 3.5 | 0.00 | 0.00 | 0.00 | 96 | 1016.3 |
| 20260507032520 | 53 | 202 | 2.6 | 3.5 | 0.00 | 0.00 | 0.00 | 96 | 1016.3 |
| 20260507031520 | 53 | 202 | 2.6 | 3.5 | 0.00 | 0.00 | 0.00 | 96 | 1016.3 |
| 20260507030520 | 53 | 193 | 2.6 | 3.5 | 0.00 | 0.00 | 0.00 | 96 | 1016.2 |
| 20260507025520 | 53 | 180 | 0.0 | 0.9 | 0.00 | 0.00 | 0.00 | 96 | 1016.1 |
| 20260507024520 | 53 | 180 | 1.7 | 3.5 | 0.00 | 0.00 | 0.00 | 96 | 1016.0 |
| 20260507023542 | 53 | 180 | 1.7 | 3.5 | 0.00 | 0.00 | 0.00 | 96 | 1015.9 |
| 20260507022520 | 53 | 180 | 1.7 | 2.6 | 0.00 | 0.00 | 0.00 | 95 | 1015.9 |
| 20260507021520 | 54 | 180 | 2.6 | 3.5 | 0.00 | 0.00 | 0.00 | 96 | 1016.1 |
| 20260507020520 | 54 | 225 | 4.3 | 5.2 | 0.00 | 0.00 | 0.00 | 96 | 1015.9 |
| 20260507015520 | 54 | 209 | 2.6 | 4.3 | 0.00 | 0.00 | 0.00 | 96 | 1015.8 |
| 20260507014520 | 53 | 196 | 3.5 | 3.5 | 0.00 | 0.00 | 0.00 | 96 | 1015.9 |
| 20260507013520 | 53 | 180 | 0.9 | 1.7 | 0.00 | 0.00 | 0.00 | 95 | 1015.8 |